[[{"header":{"parameterUnit":"m.s-1","parameterCategory":1,"la1":30.2991,"la2":30.254,"lo1":-89.0895,"lo2":-89.0444,"dy":0.0017,"dx":0.0017,"nx":28,"ny":28,"refTime":"2023-08-02T03:00:00:Z","depth":0,"parameterNumber":2,"parameterNumberName":"U-component_of_WINDS"},"data":[0,0,0,0,0,0,0,0,0,0,0,0,0,0,0,0,0,0,0,0,0,0,0,0,0,0,0,0,0,0,0,0,0,0,0,0,0,0,0,0,0,0,0,0,0,0,0,0,0,0,0,0,0,0,0,0,0,0,0.038,0.0381,0,0.0458,0.0459,0.046,0.0511,0.0511,0.0511,0.0512,0.0592,0.0594,0.0596,0,0,0,0,0,0,0,0,0,0,0,0,0,0.0274,0.0275,0.038,0.0381,0.0382,0.0458,0.0459,0.046,0.0511,0.0511,0.0511,0.0512,0.0592,0.0594,0.0596,0,0,0,0,0,0,0,0,0,0,0,0,0,0.0332,0.0276,0.038,0.0416,0.042,0.0458,0.0459,0.0461,0.0511,0.0511,0.0512,0.0512,0.0591,0.0594,0.0596,0.0604,0,0,0.0605,0.0606,0,0,0,0,0,0,0,0,0.0329,0.0336,0.041,0.0414,0.0418,0.0475,0.0451,0.0509,0.051,0.0476,0.0512,0.0512,0.0553,0.0559,0.0573,0.0608,0.0611,0.0605,0.0607,0.0608,0.0609,0,0,0,0,0,0,0,0.0325,0.0333,0.0411,0.0411,0.0416,0.0428,0.0437,0.0462,0.0511,0.0479,0.0483,0.0492,0.0555,0.057,0.0575,0.0613,0.0605,0.0608,0.0609,0.061,0.0656,0.0656,0,0,0,0,0,0,0.0315,0.033,0.0409,0.0413,0.0374,0.043,0.044,0.0456,0.0511,0.052,0.0491,0.0494,0.0565,0.0572,0.0578,0.0589,0.0608,0.0611,0.0612,0.0657,0.0656,0.0656,0,0,0,0,0,0,0.0313,0.0322,0.0405,0.0373,0.0384,0.0431,0.0449,0.0458,0.0472,0.052,0.0529,0.0497,0.0565,0.0574,0.0597,0.0593,0.0612,0.0614,0.0657,0.0656,0.0656,0.0612,0,0,0,0,0,0,0.0309,0.0321,0.0324,0.0372,0.0386,0.0423,0.0449,0.0459,0.0477,0.0481,0.0528,0.0536,0.0566,0.0592,0.0599,0.0597,0.0617,0.0658,0.0657,0.0656,0.0614,0.061,0.0607,0,0,0,0,0,0.0305,0.0309,0.0324,0.0333,0.0391,0.0423,0.043,0.0465,0.0476,0.048,0.051,0.0534,0.0592,0.0594,0.0603,0.0601,0.0658,0.0657,0.0656,0.0616,0.0611,0.0607,0,0,0,0,0,0,0.026,0.0316,0.0333,0.0353,0.0382,0.0431,0.0437,0.0459,0.0486,0.0489,0.0531,0.0542,0.056,0.0583,0.0584,0.061,0.0628,0.0628,0.0595,0.059,0.0586,0.058,0.0619,0,0,0,0,0,0.0252,0.0273,0.0321,0.0334,0.0348,0.039,0.0405,0.0429,0.0461,0.0474,0.0506,0.0537,0.0562,0.0577,0.0603,0.0618,0.0628,0.0621,0.0617,0.0614,0.0614,0.0622,0.0619,0.0652,0.0652,0.0652,0,0,0.0236,0.027,0.0281,0.0326,0.0351,0.0371,0.04,0.0421,0.0436,0.0478,0.0501,0.0525,0.0562,0.058,0.059,0.06,0.0606,0.0612,0.0609,0.0611,0.062,0.0617,0.0614,0.0652,0.0652,0.0652,0,0,0.0218,0.0246,0.0259,0.0283,0.0322,0.0349,0.0352,0.0397,0.0415,0.0439,0.047,0.0489,0.0531,0.0555,0.0573,0.0562,0.0585,0.0569,0.055,0.0557,0.0554,0.0552,0.0547,0.0544,0.0569,0.0569,0.0569,0,0.0193,0.0225,0.0262,0.0281,0.0299,0.0337,0.035,0.0372,0.0417,0.0429,0.0439,0.0492,0.052,0.0543,0.054,0.0554,0.0558,0.0564,0.0552,0.055,0.0548,0.0544,0.0542,0.0567,0.0567,0.0567,0.0568,0,0.0193,0.0214,0.022,0.0261,0.0281,0.0296,0.0335,0.035,0.0372,0.0398,0.0421,0.0455,0.0487,0.0495,0.0517,0.0521,0.0526,0.0544,0.0562,0.0542,0.0539,0.0537,0.0564,0.0565,0.0565,0.0566,0,0,0.0148,0.0209,0.0211,0.0229,0.0274,0.0291,0.0308,0.0339,0.035,0.0379,0.0394,0.0428,0.0444,0.0464,0.0489,0.0496,0.0483,0.0512,0.0514,0.0504,0.0488,0.0474,0.0471,0.0498,0.0498,0.0498,0.0484,0,0.0135,0.0167,0.0201,0.0221,0.024,0.0276,0.029,0.0319,0.0343,0.0363,0.0391,0.0413,0.0433,0.0445,0.0453,0.0482,0.048,0.0484,0.0511,0.0512,0.05,0.047,0.0455,0.0441,0.0483,0.0483,0.0483,0,0.0125,0.0152,0.0174,0.0215,0.0224,0.0237,0.0267,0.0286,0.0319,0.0336,0.0358,0.0384,0.0403,0.0419,0.0444,0.0446,0.0459,0.0475,0.0475,0.0478,0.0495,0.0471,0.0437,0.0435,0.0481,0.0481,0.0482,0,0.0089,0.013,0.0148,0.0164,0.0213,0.022,0.0241,0.0274,0.029,0.0317,0.0327,0.0356,0.0371,0.0392,0.0425,0.0434,0.0447,0.0466,0.0461,0.046,0.0462,0.0461,0.0428,0.0471,0.0471,0.0471,0.0471,0,0.0071,0.0082,0.0133,0.0143,0.0157,0.0195,0.0207,0.0231,0.026,0.0275,0.0308,0.0322,0.0366,0.0384,0.041,0.0427,0.0434,0.0448,0.0454,0.0444,0.0442,0.0453,0.0454,0.0471,0.0471,0.0471,0.0471,0,0.0032,0.0067,0.0088,0.0133,0.0144,0.0152,0.019,0.0201,0.0227,0.0246,0.0253,0.0294,0.0318,0.0353,0.0387,0.0405,0.0416,0.0428,0.0405,0.0409,0.0401,0.0401,0.0374,0.0371,0.0416,0.0416,0.0415,0,0.0018,0.0027,0.0072,0.0085,0.0105,0.0125,0.0141,0.0178,0.0194,0.0231,0.0238,0.0264,0.0287,0.0323,0.0355,0.0381,0.0393,0.0382,0.0397,0.0386,0.0391,0.039,0.039,0.0378,0.0377,0.0376,0.0376,0,-0.0012,0.0004,0.0027,0.0055,0.0073,0.0097,0.0122,0.0131,0.0173,0.0189,0.0213,0.0231,0.0266,0.0291,0.0321,0.0342,0.0365,0.0371,0.0371,0.036,0.0346,0.0352,0.0394,0.0371,0.0372,0.0372,0.0372,0.0372,-0.0039,-0.003,0.0003,0.0026,0.0049,0.0072,0.0084,0.0112,0.0133,0.0163,0.0184,0.0207,0.0238,0.0281,0.03,0.0318,0.0329,0.0329,0.0329,0.0328,0.0324,0.0344,0.0324,0.0324,0.0325,0.0325,0.0325,0,-0.0068,-0.0046,-0.0025,0.0009,0.0027,0.0048,0.0077,0.009,0.011,0.0137,0.0159,0.0186,0.021,0.0244,0.027,0.0278,0.0289,0.0283,0.0283,0.0287,0.0314,0.0311,0.0274,0.0274,0.0274,0.0274,0.0274,0.0274,-0.0082,-0.0065,-0.0045,-0.0017,0.0006,0.0028,0.0043,0.0063,0.0085,0.0114,0.0134,0.0156,0.0185,0.0213,0.0236,0.0245,0.0253,0.0244,0.0256,0.028,0.0285,0.029,0.0287,0.0245,0.0245,0.0227,0.0227,0.0227]},{"header":{"parameterUnit":"m.s-1","parameterCategory":1,"la1":30.2991,"la2":30.254,"lo1":-89.0895,"lo2":-89.0444,"dy":0.0017,"dx":0.0017,"nx":28,"ny":28,"refTime":"2023-08-02T03:00:00:Z","depth":0,"parameterNumber":3,"parameterNumberName":"V-component_of_WINDS"},"data":[0,0,0,0,0,0,0,0,0,0,0,0,0,0,0,0,0,0,0,0,0,0,0,0,0,0,0,0,0,0,0,0,0,0,0,0,0,0,0,0,0,0,0,0,0,0,0,0,0,0,0,0,0,0,0,0,0,0,4.3237,4.3237,0,4.3171,4.3171,4.317,4.3172,4.3173,4.3173,4.3174,4.3099,4.3096,4.3093,0,0,0,0,0,0,0,0,0,0,0,0,0,4.3357,4.3355,4.3237,4.3236,4.3236,4.3171,4.3171,4.317,4.3171,4.3173,4.3174,4.3175,4.3099,4.3096,4.3093,0,0,0,0,0,0,0,0,0,0,0,0,0,4.33,4.3354,4.3237,4.3229,4.3228,4.3172,4.317,4.3169,4.3171,4.3173,4.3174,4.3175,4.3101,4.3096,4.3092,4.3038,0,0,4.3079,4.3077,0,0,0,0,0,0,0,0,4.3303,4.3295,4.3231,4.323,4.3228,4.3181,4.3185,4.3125,4.3171,4.3192,4.3174,4.3176,4.3124,4.3118,4.3103,4.3034,4.3031,4.3079,4.3076,4.3074,4.3073,0,0,0,0,0,0,0,4.3307,4.3298,4.3211,4.323,4.3228,4.3226,4.3219,4.3174,4.3151,4.3191,4.3191,4.3183,4.3124,4.3107,4.3101,4.303,4.3079,4.3075,4.3072,4.307,4.2913,4.2911,0,0,0,0,0,0,4.3314,4.3301,4.3213,4.3209,4.327,4.3223,4.3215,4.3195,4.3152,4.3147,4.3182,4.3184,4.3113,4.3106,4.3098,4.3031,4.3074,4.307,4.3068,4.2914,4.2912,4.2911,0,0,0,0,0,0,4.3316,4.3306,4.3216,4.3255,4.3244,4.3219,4.3196,4.3193,4.3176,4.3145,4.3141,4.3169,4.3114,4.3104,4.3053,4.3028,4.3068,4.3064,4.2916,4.2914,4.2912,4.2897,0,0,0,0,0,0,4.332,4.3307,4.3287,4.3255,4.3242,4.3174,4.3195,4.319,4.3169,4.317,4.3132,4.3127,4.3115,4.306,4.3049,4.3023,4.3061,4.2918,4.2915,4.2912,4.2899,4.2894,4.289,0,0,0,0,0,4.3324,4.3284,4.3286,4.3276,4.3217,4.3173,4.3165,4.3154,4.3167,4.3146,4.3127,4.3128,4.3033,4.3054,4.3042,4.3015,4.292,4.2916,4.2913,4.2901,4.2895,4.289,0,0,0,0,0,0,4.3311,4.328,4.3282,4.3231,4.3205,4.3173,4.3146,4.3147,4.3114,4.3117,4.3102,4.3093,4.3042,4.3023,4.3047,4.296,4.2978,4.2972,4.2974,4.2967,4.2963,4.2967,4.3057,0,0,0,0,0,4.3303,4.3272,4.3245,4.3202,4.319,4.3171,4.315,4.3145,4.3116,4.3104,4.3081,4.305,4.3014,4.299,4.2954,4.2897,4.2888,4.2872,4.2868,4.2864,4.2858,4.2826,4.2818,4.2899,4.2899,4.2899,0,0,4.3284,4.3263,4.3244,4.3199,4.3179,4.3144,4.3161,4.3124,4.3098,4.3097,4.3048,4.303,4.2996,4.2941,4.2916,4.2924,4.2834,4.2859,4.2857,4.2853,4.2821,4.2814,4.2807,4.2896,4.2897,4.2897,0,0,4.3233,4.3215,4.3178,4.3157,4.3127,4.3114,4.3106,4.3074,4.3063,4.3014,4.3013,4.2981,4.2918,4.2894,4.2873,4.2814,4.2813,4.2803,4.2777,4.2746,4.2739,4.2734,4.2712,4.2704,4.2798,4.2798,4.2798,0,4.3213,4.3165,4.3157,4.3121,4.3101,4.3102,4.3063,4.3042,4.3,4.2985,4.2996,4.2918,4.2895,4.2834,4.2821,4.2804,4.2792,4.2806,4.2742,4.2736,4.273,4.2709,4.2701,4.2796,4.2797,4.2797,4.2797,0,4.3141,4.3107,4.308,4.3043,4.302,4.2982,4.2967,4.2944,4.294,4.2926,4.2876,4.2849,4.2808,4.2793,4.2788,4.2732,4.2738,4.2745,4.2763,4.2721,4.2701,4.2693,4.2795,4.2795,4.2796,4.2796,0,0,4.3078,4.3039,4.3029,4.3013,4.298,4.2952,4.2914,4.2877,4.2857,4.2828,4.2794,4.2742,4.2749,4.2726,4.2718,4.269,4.2645,4.2701,4.27,4.269,4.258,4.2574,4.2565,4.2645,4.2643,4.2642,4.2582,0,4.3022,4.2958,4.2951,4.2891,4.2859,4.2861,4.2827,4.2802,4.2788,4.2757,4.2741,4.2704,4.2716,4.2702,4.2676,4.2656,4.2622,4.266,4.2611,4.2609,4.2618,4.2554,4.2547,4.2492,4.2574,4.2573,4.2572,0,4.2949,4.2921,4.286,4.2832,4.2818,4.2789,4.2754,4.2725,4.2696,4.2688,4.2663,4.2659,4.2617,4.2638,4.2579,4.2606,4.2585,4.2572,4.257,4.2563,4.2587,4.2544,4.2474,4.2466,4.256,4.2561,4.2562,0,4.2907,4.2855,4.2812,4.2797,4.2764,4.2743,4.2728,4.2701,4.2679,4.2648,4.2634,4.2597,4.2577,4.2548,4.2534,4.2551,4.2475,4.2495,4.2465,4.2465,4.2448,4.2449,4.2372,4.2437,4.2437,4.2437,4.2437,0,4.2845,4.2807,4.2793,4.2766,4.2723,4.2715,4.2672,4.2657,4.2633,4.2601,4.26,4.257,4.2553,4.252,4.2508,4.2461,4.2452,4.2442,4.2439,4.2441,4.2443,4.2426,4.2429,4.2435,4.2435,4.2436,4.2436,0,4.2791,4.278,4.2733,4.2707,4.2699,4.2669,4.2645,4.2617,4.2605,4.2565,4.2555,4.2534,4.2495,4.2479,4.243,4.2422,4.2367,4.2367,4.2377,4.2376,4.2347,4.2349,4.2256,4.2243,4.2317,4.2317,4.2316,0,4.2752,4.2723,4.2695,4.2675,4.266,4.2628,4.2607,4.2597,4.2575,4.2541,4.2517,4.2479,4.2448,4.2385,4.2364,4.2326,4.2325,4.2295,4.2319,4.2322,4.2323,4.2324,4.2321,4.229,4.2289,4.2288,4.2288,0,4.2682,4.2679,4.265,4.2619,4.2595,4.2569,4.2544,4.2527,4.2514,4.2488,4.245,4.2427,4.2378,4.234,4.2302,4.2283,4.2282,4.2281,4.2272,4.2273,4.228,4.2274,4.2364,4.2282,4.2283,4.2283,4.2284,4.2284,4.2633,4.2608,4.2584,4.2552,4.2533,4.251,4.2484,4.2469,4.2438,4.24,4.2396,4.2355,4.2326,4.2275,4.2255,4.2221,4.2228,4.2215,4.2212,4.2208,4.2206,4.2287,4.2214,4.2214,4.2214,4.2215,4.2215,0,4.2563,4.2548,4.2519,4.2486,4.246,4.2466,4.2439,4.2416,4.2381,4.2356,4.2326,4.2282,4.2245,4.2222,4.2184,4.2161,4.2159,4.2151,4.2152,4.2147,4.2202,4.2214,4.2153,4.2153,4.2153,4.2153,4.2153,4.2153,4.2523,4.248,4.2474,4.2422,4.2407,4.2369,4.2353,4.2331,4.2311,4.2263,4.2233,4.222,4.2195,4.2156,4.2121,4.2115,4.21,4.2091,4.2085,4.2137,4.2143,4.2149,4.216,4.2089,4.2089,4.2033,4.2032,4.2032]}]]